Time,TemperatureF,DewpointF,PressureIn,WindDirection,WindDirectionDegrees,WindSpeedMPH,WindSpeedGustMPH,Humidity,HourlyPrecipIn,Conditions,Clouds,dailyrainin,SoftwareType,DateUTC
2013-02-09 00:03:00,16.0,-99.9,-100.00,North,-999,-999.0,-999.0,-999,0.00,,,0.00,,2013-02-09 05:03:00,
2013-02-09 00:12:00,16.0,-99.9,-100.00,North,-999,-999.0,-999.0,-999,0.00,,,0.00,,2013-02-09 05:12:00,
2013-02-09 00:22:00,16.0,-99.9,-100.00,North,-999,-999.0,-999.0,-999,0.00,,,0.00,,2013-02-09 05:22:00,
2013-02-09 00:30:00,13.0,-99.9,-100.00,North,-999,-999.0,-999.0,-999,0.00,,,0.00,,2013-02-09 05:30:00,
2013-02-09 01:02:00,13.0,-99.9,-100.00,North,-999,-999.0,-999.0,-999,0.00,,,0.00,,2013-02-09 06:02:00,
2013-02-09 01:11:00,13.0,-99.9,-100.00,North,-999,-999.0,-999.0,-999,0.00,,,0.00,,2013-02-09 06:11:00,
2013-02-09 01:22:00,13.0,-99.9,-100.00,North,-999,-999.0,-999.0,-999,0.00,,,0.00,,2013-02-09 06:22:00,
2013-02-09 01:30:00,12.0,-99.9,-100.00,North,-999,-999.0,-999.0,-999,0.00,,,0.00,,2013-02-09 06:30:00,
2013-02-09 01:52:00,12.0,-99.9,-100.00,North,-999,-999.0,-999.0,-999,0.00,,,0.00,,2013-02-09 06:52:00,
2013-02-09 02:02:00,12.0,-99.9,-100.00,North,-999,-999.0,-999.0,-999,0.00,,,0.00,,2013-02-09 07:02:00,
2013-02-09 02:11:00,12.0,-99.9,-100.00,North,-999,-999.0,-999.0,-999,0.00,,,0.00,,2013-02-09 07:11:00,
2013-02-09 02:22:00,12.0,-99.9,-100.00,North,-999,-999.0,-999.0,-999,0.00,,,0.00,,2013-02-09 07:22:00,
2013-02-09 02:30:00,12.0,-99.9,-100.00,North,-999,-999.0,-999.0,-999,0.00,,,0.00,,2013-02-09 07:30:00,
2013-02-09 02:52:00,12.0,-99.9,-100.00,North,-999,-999.0,-999.0,-999,0.00,,,0.00,,2013-02-09 07:52:00,
2013-02-09 03:01:00,12.0,-99.9,-100.00,North,-999,-999.0,-999.0,-999,0.00,,,0.00,,2013-02-09 08:01:00,
2013-02-09 03:11:00,12.0,-99.9,-100.00,North,-999,-999.0,-999.0,-999,0.00,,,0.00,,2013-02-09 08:11:00,
2013-02-09 03:22:00,12.0,-99.9,-100.00,North,-999,-999.0,-999.0,-999,0.00,,,0.00,,2013-02-09 08:22:00,
2013-02-09 03:30:00,11.0,-99.9,-100.00,North,-999,-999.0,-999.0,-999,0.00,,,0.00,,2013-02-09 08:30:00,
2013-02-09 03:52:00,11.0,-99.9,-100.00,North,-999,-999.0,-999.0,-999,0.00,,,0.00,,2013-02-09 08:52:00,
2013-02-09 04:03:00,11.0,-99.9,-100.00,North,-999,-999.0,-999.0,-999,0.00,,,0.00,,2013-02-09 09:03:00,
2013-02-09 04:11:00,11.0,-99.9,-100.00,North,-999,-999.0,-999.0,-999,0.00,,,0.00,,2013-02-09 09:11:00,
2013-02-09 04:22:00,11.0,-99.9,-100.00,North,-999,-999.0,-999.0,-999,0.00,,,0.00,,2013-02-09 09:22:00,
2013-02-09 04:30:00,11.0,-99.9,-100.00,North,-999,-999.0,-999.0,-999,0.02,,,0.02,,2013-02-09 09:30:00,
2013-02-09 04:52:00,11.0,-99.9,-100.00,North,-999,-999.0,-999.0,-999,0.02,,,0.02,,2013-02-09 09:52:00,
2013-02-09 05:02:00,11.0,-99.9,-100.00,North,-999,-999.0,-999.0,-999,0.02,,,0.02,,2013-02-09 10:02:00,
2013-02-09 05:11:00,11.0,-99.9,-100.00,North,-999,-999.0,-999.0,-999,0.02,,,0.02,,2013-02-09 10:11:00,
2013-02-09 05:22:00,11.0,-99.9,-100.00,North,-999,-999.0,-999.0,-999,0.02,,,0.02,,2013-02-09 10:22:00,
2013-02-09 05:30:00,10.0,-99.9,-100.00,North,-999,-999.0,-999.0,-999,0.04,,,0.06,,2013-02-09 10:30:00,
2013-02-09 06:02:00,10.0,-99.9,-100.00,North,-999,-999.0,-999.0,-999,0.04,,,0.06,,2013-02-09 11:02:00,
2013-02-09 06:11:00,10.0,-99.9,-100.00,North,-999,-999.0,-999.0,-999,0.04,,,0.06,,2013-02-09 11:11:00,
2013-02-09 06:22:00,10.0,-99.9,-100.00,North,-999,-999.0,-999.0,-999,0.04,,,0.06,,2013-02-09 11:22:00,
2013-02-09 06:30:00,9.0,-99.9,-100.00,North,-999,-999.0,-999.0,-999,0.01,,,0.07,,2013-02-09 11:30:00,
2013-02-09 06:53:00,9.0,-99.9,-100.00,North,-999,-999.0,-999.0,-999,0.01,,,0.07,,2013-02-09 11:53:00,
2013-02-09 07:02:00,9.0,-99.9,-100.00,North,-999,-999.0,-999.0,-999,0.01,,,0.07,,2013-02-09 12:02:00,
2013-02-09 07:12:00,9.0,-99.9,-100.00,North,-999,-999.0,-999.0,-999,0.01,,,0.07,,2013-02-09 12:12:00,
2013-02-09 07:22:00,9.0,-99.9,-100.00,North,-999,-999.0,-999.0,-999,0.01,,,0.07,,2013-02-09 12:22:00,
2013-02-09 07:30:00,7.0,-99.9,-100.00,North,-999,-999.0,-999.0,-999,0.01,,,0.08,,2013-02-09 12:30:00,
2013-02-09 07:53:00,7.0,-99.9,-100.00,North,-999,-999.0,-999.0,-999,0.01,,,0.08,,2013-02-09 12:53:00,
2013-02-09 08:02:00,7.0,-99.9,-100.00,North,-999,-999.0,-999.0,-999,0.01,,,0.08,,2013-02-09 13:02:00,
2013-02-09 08:11:00,7.0,-99.9,-100.00,North,-999,-999.0,-999.0,-999,0.01,,,0.08,,2013-02-09 13:11:00,
2013-02-09 08:22:00,7.0,-99.9,-100.00,North,-999,-999.0,-999.0,-999,0.01,,,0.08,,2013-02-09 13:22:00,
2013-02-09 08:30:00,7.0,-99.9,-100.00,North,-999,-999.0,-999.0,-999,0.00,,,0.08,,2013-02-09 13:30:00,
2013-02-09 08:52:00,7.0,-99.9,-100.00,North,-999,-999.0,-999.0,-999,0.00,,,0.08,,2013-02-09 13:52:00,
2013-02-09 09:02:00,7.0,-99.9,-100.00,North,-999,-999.0,-999.0,-999,0.00,,,0.08,,2013-02-09 14:02:00,
2013-02-09 09:12:00,7.0,-99.9,-100.00,North,-999,-999.0,-999.0,-999,0.00,,,0.08,,2013-02-09 14:12:00,
2013-02-09 09:22:00,7.0,-99.9,-100.00,North,-999,-999.0,-999.0,-999,0.00,,,0.08,,2013-02-09 14:22:00,
2013-02-09 09:30:00,6.0,-99.9,-100.00,North,-999,-999.0,-999.0,-999,0.01,,,0.09,,2013-02-09 14:30:00,
2013-02-09 10:02:00,6.0,-99.9,-100.00,North,-999,-999.0,-999.0,-999,0.01,,,0.09,,2013-02-09 15:02:00,
2013-02-09 10:12:00,6.0,-99.9,-100.00,North,-999,-999.0,-999.0,-999,0.01,,,0.09,,2013-02-09 15:12:00,
2013-02-09 10:22:00,6.0,-99.9,-100.00,North,-999,-999.0,-999.0,-999,0.01,,,0.09,,2013-02-09 15:22:00,
2013-02-09 10:30:00,7.0,-99.9,-100.00,North,-999,-999.0,-999.0,-999,0.00,,,0.09,,2013-02-09 15:30:00,
2013-02-09 11:02:00,7.0,-99.9,-100.00,North,-999,-999.0,-999.0,-999,0.00,,,0.09,,2013-02-09 16:02:00,
2013-02-09 11:11:00,7.0,-99.9,-100.00,North,-999,-999.0,-999.0,-999,0.00,,,0.09,,2013-02-09 16:11:00,
2013-02-09 11:22:00,7.0,-99.9,-100.00,North,-999,-999.0,-999.0,-999,0.00,,,0.09,,2013-02-09 16:22:00,
2013-02-09 11:30:00,7.0,-99.9,-100.00,North,-999,-999.0,-999.0,-999,0.02,,,0.11,,2013-02-09 16:30:00,
2013-02-09 12:02:00,7.0,-99.9,-100.00,North,-999,-999.0,-999.0,-999,0.02,,,0.11,,2013-02-09 17:02:00,
2013-02-09 12:11:00,7.0,-99.9,-100.00,North,-999,-999.0,-999.0,-999,0.02,,,0.11,,2013-02-09 17:11:00,
2013-02-09 12:22:00,7.0,-99.9,-100.00,North,-999,-999.0,-999.0,-999,0.02,,,0.11,,2013-02-09 17:22:00,
2013-02-09 12:30:00,8.0,-99.9,-100.00,North,-999,-999.0,-999.0,-999,0.01,,,0.12,,2013-02-09 17:30:00,
2013-02-09 13:02:00,8.0,-99.9,-100.00,North,-999,-999.0,-999.0,-999,0.01,,,0.12,,2013-02-09 18:02:00,
2013-02-09 13:12:00,8.0,-99.9,-100.00,North,-999,-999.0,-999.0,-999,0.01,,,0.12,,2013-02-09 18:12:00,
2013-02-09 13:24:00,8.0,-99.9,-100.00,North,-999,-999.0,-999.0,-999,0.01,,,0.12,,2013-02-09 18:24:00,
2013-02-09 13:30:00,10.0,-99.9,-100.00,North,-999,-999.0,-999.0,-999,0.00,,,0.12,,2013-02-09 18:30:00,
2013-02-09 14:02:00,10.0,-99.9,-100.00,North,-999,-999.0,-999.0,-999,0.00,,,0.12,,2013-02-09 19:02:00,
2013-02-09 14:11:00,10.0,-99.9,-100.00,North,-999,-999.0,-999.0,-999,0.00,,,0.12,,2013-02-09 19:11:00,
2013-02-09 14:22:00,10.0,-99.9,-100.00,North,-999,-999.0,-999.0,-999,0.00,,,0.12,,2013-02-09 19:22:00,
2013-02-09 14:30:00,11.0,-99.9,-100.00,North,-999,-999.0,-999.0,-999,0.00,,,0.12,,2013-02-09 19:30:00,
2013-02-09 14:52:00,11.0,-99.9,-100.00,North,-999,-999.0,-999.0,-999,0.00,,,0.12,,2013-02-09 19:52:00,
2013-02-09 15:02:00,11.0,-99.9,-100.00,North,-999,-999.0,-999.0,-999,0.00,,,0.12,,2013-02-09 20:02:00,
2013-02-09 15:11:00,11.0,-99.9,-100.00,North,-999,-999.0,-999.0,-999,0.00,,,0.12,,2013-02-09 20:11:00,
2013-02-09 15:22:00,11.0,-99.9,-100.00,North,-999,-999.0,-999.0,-999,0.00,,,0.12,,2013-02-09 20:22:00,
2013-02-09 15:30:00,11.0,-99.9,-100.00,North,-999,-999.0,-999.0,-999,0.00,,,0.12,,2013-02-09 20:30:00,
2013-02-09 15:52:00,11.0,-99.9,-100.00,North,-999,-999.0,-999.0,-999,0.00,,,0.12,,2013-02-09 20:52:00,
2013-02-09 16:02:00,11.0,-99.9,-100.00,North,-999,-999.0,-999.0,-999,0.00,,,0.12,,2013-02-09 21:02:00,
2013-02-09 16:12:00,11.0,-99.9,-100.00,North,-999,-999.0,-999.0,-999,0.00,,,0.12,,2013-02-09 21:12:00,
2013-02-09 16:22:00,11.0,-99.9,-100.00,North,-999,-999.0,-999.0,-999,0.00,,,0.12,,2013-02-09 21:22:00,
2013-02-09 16:30:00,10.0,-99.9,-100.00,North,-999,-999.0,-999.0,-999,0.00,,,0.12,,2013-02-09 21:30:00,
2013-02-09 17:02:00,10.0,-99.9,-100.00,North,-999,-999.0,-999.0,-999,0.00,,,0.12,,2013-02-09 22:02:00,
2013-02-09 17:12:00,10.0,-99.9,-100.00,North,-999,-999.0,-999.0,-999,0.00,,,0.12,,2013-02-09 22:12:00,
2013-02-09 17:22:00,10.0,-99.9,-100.00,North,-999,-999.0,-999.0,-999,0.00,,,0.12,,2013-02-09 22:22:00,
2013-02-09 17:30:00,10.0,-99.9,-100.00,North,-999,-999.0,-999.0,-999,0.00,,,0.12,,2013-02-09 22:30:00,
2013-02-09 17:52:00,10.0,-99.9,-100.00,North,-999,-999.0,-999.0,-999,0.00,,,0.12,,2013-02-09 22:52:00,
2013-02-09 18:02:00,10.0,-99.9,-100.00,North,-999,-999.0,-999.0,-999,0.00,,,0.12,,2013-02-09 23:02:00,
2013-02-09 18:11:00,10.0,-99.9,-100.00,North,-999,-999.0,-999.0,-999,0.00,,,0.12,,2013-02-09 23:11:00,
2013-02-09 18:22:00,10.0,-99.9,-100.00,North,-999,-999.0,-999.0,-999,0.00,,,0.12,,2013-02-09 23:22:00,
2013-02-09 18:30:00,9.0,-99.9,-100.00,North,-999,-999.0,-999.0,-999,0.00,,,0.12,,2013-02-09 23:30:00,
2013-02-09 19:02:00,9.0,-99.9,-100.00,North,-999,-999.0,-999.0,-999,0.00,,,0.12,,2013-02-10 00:02:00,
2013-02-09 19:12:00,9.0,-99.9,-100.00,North,-999,-999.0,-999.0,-999,0.00,,,0.12,,2013-02-10 00:12:00,
2013-02-09 19:22:00,9.0,-99.9,-100.00,North,-999,-999.0,-999.0,-999,0.00,,,0.12,,2013-02-10 00:22:00,
2013-02-09 19:30:00,8.0,-99.9,-100.00,North,-999,-999.0,-999.0,-999,0.00,,,0.12,,2013-02-10 00:30:00,
2013-02-09 19:52:00,8.0,-99.9,-100.00,North,-999,-999.0,-999.0,-999,0.00,,,0.12,,2013-02-10 00:52:00,
2013-02-09 20:02:00,8.0,-99.9,-100.00,North,-999,-999.0,-999.0,-999,0.00,,,0.12,,2013-02-10 01:02:00,
2013-02-09 20:12:00,8.0,-99.9,-100.00,North,-999,-999.0,-999.0,-999,0.00,,,0.12,,2013-02-10 01:12:00,
2013-02-09 20:22:00,8.0,-99.9,-100.00,North,-999,-999.0,-999.0,-999,0.00,,,0.12,,2013-02-10 01:22:00,
2013-02-09 20:30:00,4.0,-99.9,-100.00,North,-999,-999.0,-999.0,-999,0.00,,,0.12,,2013-02-10 01:30:00,
2013-02-09 20:52:00,4.0,-99.9,-100.00,North,-999,-999.0,-999.0,-999,0.00,,,0.12,,2013-02-10 01:52:00,
2013-02-09 21:02:00,4.0,-99.9,-100.00,North,-999,-999.0,-999.0,-999,0.00,,,0.12,,2013-02-10 02:02:00,
2013-02-09 21:11:00,4.0,-99.9,-100.00,North,-999,-999.0,-999.0,-999,0.00,,,0.12,,2013-02-10 02:11:00,
2013-02-09 21:22:00,4.0,-99.9,-100.00,North,-999,-999.0,-999.0,-999,0.00,,,0.12,,2013-02-10 02:22:00,
2013-02-09 21:30:00,1.0,-99.9,-100.00,North,-999,-999.0,-999.0,-999,0.00,,,0.12,,2013-02-10 02:30:00,
2013-02-09 22:02:00,1.0,-99.9,-100.00,North,-999,-999.0,-999.0,-999,0.00,,,0.12,,2013-02-10 03:02:00,
2013-02-09 22:12:00,1.0,-99.9,-100.00,North,-999,-999.0,-999.0,-999,0.00,,,0.12,,2013-02-10 03:12:00,
2013-02-09 22:22:00,1.0,-99.9,-100.00,North,-999,-999.0,-999.0,-999,0.00,,,0.12,,2013-02-10 03:22:00,
2013-02-09 22:30:00,-2.0,-99.9,-100.00,North,-999,-999.0,-999.0,-999,0.00,,,0.12,,2013-02-10 03:30:00,
2013-02-09 23:02:00,-2.0,-99.9,-100.00,North,-999,-999.0,-999.0,-999,0.00,,,0.12,,2013-02-10 04:02:00,
2013-02-09 23:30:00,-4.0,-99.9,-100.00,North,-999,-999.0,-999.0,-999,0.00,,,0.12,,2013-02-10 04:30:00,
2013-02-09 23:52:00,-4.0,-99.9,-100.00,North,-999,-999.0,-999.0,-999,0.00,,,0.12,,2013-02-10 04:52:00,